Novato, CA

8:38 PM PDT on May 25, 2017 (GMT -0700)
Gnoss

Weather History for KDVO - February, 2014

Change the Weather History Date:

Wednesday, February 5, 2014

  Actual Average (KAPC) Record (KAPC)
Temperature  
Mean Temperature 40 °F -  
Max Temperature 53 °F 60 °F 81 °F (2011)
Min Temperature 26 °F 39 °F 30 °F (1999)
Degree Days  
Heating Degree Days 26    
Moisture  
Dew Point 37 °F    
Average Humidity 86    
Maximum Humidity 100    
Minimum Humidity 47    
Precipitation  
Precipitation 0.04 in - - ()
Sea Level Pressure  
Sea Level Pressure 30.15 in    
Wind  
Wind Speed 2 mph (WNW)    
Max Wind Speed 10 mph    
Max Gust Speed 22 mph    
Visibility 9 miles    
Events Fog , Rain    
Averages and records for this station are not official NWS values.
T = Trace of Precipitation, MM = Missing Value Source: NWS Daily Summary

Daily Weather History Graph

Daily Weather History Graph

Search for Another Location

Airport or City:

Trip Planner

Search our weather history database for the weather conditions in past years. The results will help you decide how hot, cold, wet, or windy it might be!

Date:

Astronomy

Feb. 05, 2014 Rise Set
Actual Time 7:11 AM PST 5:37 PM PST
Civil Twilight 6:43 AM PST 6:05 PM PST
Nautical Twilight 6:12 AM PST 6:36 PM PST
Astronomical Twilight 5:41 AM PST 7:07 PM PST
Moon 10:35 AM PST (2/5) No Moon Set
Length of Visible Light 11h 21m
Length of Day
10h 26m
Waxing Crescent, 40% of the Moon is Illuminated
Feb 5
Waxing Crescent
Feb 6
First Quarter
Feb 14
Full
Feb 22
Last Quarter
Mar 1
New

Hourly Weather History & Observations

Time (PST) Temp. Windchill Dew Point Humidity Pressure Visibility Wind Dir Wind Speed Gust Speed Precip Events Conditions
12:15 AM 35.6 °F 29.9 °F 35.6 °F 100% 30.17 in 10.0 mi NNE 6.9 mph - N/A   Clear
12:35 AM 33.8 °F 29.6 °F 33.8 °F 100% 30.17 in 10.0 mi NNW 4.6 mph - N/A   Clear
12:55 AM 35.6 °F - 35.6 °F 100% 30.16 in 10.0 mi Calm Calm - N/A   Clear
1:15 AM 35.6 °F 31.7 °F 35.6 °F 100% 30.15 in 10.0 mi South 4.6 mph - N/A   Clear
1:35 AM 32.0 °F - 32.0 °F 100% 30.16 in 10.0 mi Calm Calm - N/A   Clear
1:55 AM 32.0 °F - 32.0 °F 100% 30.16 in 10.0 mi Calm Calm - N/A   Clear
2:15 AM 32.0 °F - 32.0 °F 100% 30.17 in 10.0 mi Calm Calm - N/A   Clear
2:35 AM 33.8 °F - 33.8 °F 100% 30.17 in 8.0 mi Calm Calm - N/A   Clear
2:55 AM 32.0 °F - 32.0 °F 100% 30.16 in 10.0 mi Calm Calm - N/A   Clear
3:15 AM 33.8 °F 30.8 °F 33.8 °F 100% 30.16 in 10.0 mi SSW 3.5 mph - N/A   Clear
3:35 AM 32.0 °F - 32.0 °F 100% 30.15 in 10.0 mi Calm Calm - N/A   Clear
3:55 AM 32.0 °F - 32.0 °F 100% 30.16 in 10.0 mi Calm Calm - N/A   Clear
4:15 AM 32.0 °F 28.7 °F 32.0 °F 100% 30.18 in 10.0 mi NW 3.5 mph - N/A   Clear
4:35 AM 32.0 °F - 32.0 °F 100% 30.18 in 10.0 mi Calm Calm - N/A   Clear
4:55 AM 32.0 °F - 32.0 °F 100% 30.19 in 10.0 mi Calm Calm - N/A   Clear
5:15 AM 32.0 °F - 32.0 °F 100% 30.19 in 9.0 mi Calm Calm - N/A   Clear
5:35 AM 32.0 °F - 32.0 °F 100% 30.18 in 10.0 mi Calm Calm - N/A   Clear
5:55 AM 28.4 °F - 28.4 °F 100% 30.18 in 1.5 mi Calm Calm - N/A   Clear
6:15 AM 28.4 °F 24.6 °F 28.4 °F 100% 30.19 in 7.0 mi NW 3.5 mph - N/A   Clear
6:35 AM 32.0 °F - 32.0 °F 100% 30.20 in 10.0 mi Calm Calm - N/A   Clear
6:55 AM 32.0 °F - 32.0 °F 100% 30.20 in 9.0 mi Calm Calm - N/A   Clear
7:15 AM 32.0 °F - 32.0 °F 100% 30.20 in 10.0 mi Calm Calm - N/A   Clear
7:35 AM 26.6 °F - 26.6 °F 100% 30.20 in 0.2 mi Calm Calm - N/A Fog Light Freezing Fog
7:55 AM 30.2 °F - 30.2 °F 100% 30.21 in 1.8 mi Calm Calm - N/A   Clear
8:15 AM 32.0 °F 28.7 °F 32.0 °F 100% 30.21 in 10.0 mi South 3.5 mph - N/A   Clear
8:35 AM 32.0 °F - 32.0 °F 100% 30.21 in 10.0 mi Calm Calm - N/A   Clear
8:55 AM 35.6 °F - 35.6 °F 100% 30.22 in 10.0 mi Calm Calm - N/A   Clear
9:15 AM 39.2 °F - 37.4 °F 93% 30.22 in 10.0 mi Calm Calm - N/A   Clear
9:35 AM 41.0 °F 39.0 °F 39.2 °F 93% 30.21 in 10.0 mi ENE 3.5 mph - N/A   Clear
9:55 AM 42.8 °F 41.1 °F 39.2 °F 87% 30.21 in 10.0 mi ENE 3.5 mph - N/A   Clear
10:15 AM 44.6 °F - 39.2 °F 81% 30.21 in 10.0 mi Calm Calm - N/A   Clear
10:35 AM 46.4 °F - 39.2 °F 76% 30.21 in 10.0 mi Calm Calm - N/A   Clear
10:55 AM 48.2 °F - 37.4 °F 66% 30.21 in 10.0 mi Calm Calm - N/A   Clear
11:15 AM 48.2 °F - 37.4 °F 66% 30.21 in 10.0 mi Calm Calm - N/A   Clear
11:35 AM 50.0 °F - 37.4 °F 62% 30.20 in 10.0 mi Calm Calm - N/A   Clear
11:55 AM 50.0 °F - 37.4 °F 62% 30.19 in 10.0 mi Calm Calm - N/A   Clear
12:15 PM 51.8 °F - 33.8 °F 50% 30.18 in 10.0 mi WSW 8.1 mph - N/A   Clear
12:35 PM 53.6 °F - 33.8 °F 47% 30.17 in 10.0 mi WSW 8.1 mph - N/A   Clear
12:55 PM 53.6 °F - 33.8 °F 47% 30.16 in 10.0 mi WSW 9.2 mph - N/A   Partly Cloudy
1:15 PM 53.6 °F - 37.4 °F 54% 30.15 in 10.0 mi SW 10.4 mph 16.1 mph N/A   Clear
1:35 PM 53.6 °F - 35.6 °F 51% 30.14 in 10.0 mi West 8.1 mph - N/A   Clear
1:55 PM 53.6 °F - 35.6 °F 51% 30.14 in 10.0 mi WSW 10.4 mph - N/A   Clear
2:15 PM 53.6 °F - 35.6 °F 51% 30.13 in 10.0 mi Calm Calm - N/A   Partly Cloudy
2:35 PM 53.6 °F - 35.6 °F 51% 30.13 in 10.0 mi NW 5.8 mph - N/A   Clear
2:55 PM 53.6 °F - 35.6 °F 51% 30.13 in 10.0 mi NW 6.9 mph - N/A   Clear
3:15 PM 53.6 °F - 37.4 °F 54% 30.12 in 10.0 mi West 5.8 mph 21.9 mph N/A   Clear
3:35 PM 51.8 °F - 37.4 °F 58% 30.12 in 10.0 mi WNW 4.6 mph - N/A   Clear
3:55 PM 51.8 °F - 37.4 °F 58% 30.12 in 10.0 mi Calm Calm - N/A   Clear
4:15 PM 50.0 °F - 37.4 °F 62% 30.13 in 10.0 mi WSW 9.2 mph - N/A   Mostly Cloudy
4:35 PM 50.0 °F - 39.2 °F 66% 30.13 in 10.0 mi WSW 8.1 mph - N/A   Mostly Cloudy
4:55 PM 50.0 °F - 39.2 °F 66% 30.12 in 10.0 mi Calm Calm - N/A Rain Light Rain
5:15 PM 48.2 °F - 41.0 °F 76% 30.13 in 10.0 mi NNW 3.5 mph - N/A Rain Light Rain
5:35 PM 46.4 °F 44.3 °F 42.8 °F 87% 30.13 in 10.0 mi NNW 4.6 mph - N/A   Overcast
5:55 PM 46.4 °F 45.2 °F 41.0 °F 81% 30.13 in 10.0 mi NNW 3.5 mph - N/A   Mostly Cloudy
6:15 PM 48.2 °F - 41.0 °F 76% 30.13 in 10.0 mi Calm Calm - N/A   Overcast
6:35 PM 46.4 °F 44.3 °F 44.6 °F 93% 30.13 in 10.0 mi NNE 4.6 mph - N/A Rain Light Rain
6:55 PM 46.4 °F 44.3 °F 44.6 °F 93% 30.12 in 10.0 mi NNE 4.6 mph - N/A Rain Light Rain
7:15 PM 44.6 °F - 44.6 °F 100% 30.12 in 10.0 mi Calm Calm - N/A Rain Light Rain
7:35 PM 44.6 °F - 44.6 °F 100% 30.12 in 9.0 mi Calm Calm - N/A Rain Light Rain
7:55 PM 44.6 °F - 44.6 °F 100% 30.12 in 6.0 mi Calm Calm - N/A Rain Light Rain
8:15 PM 44.6 °F - 44.6 °F 100% 30.12 in 7.0 mi Calm Calm - N/A Rain Light Rain
8:35 PM 44.6 °F - 44.6 °F 100% 30.11 in 6.0 mi Calm Calm - N/A Rain Light Rain
8:55 PM 44.6 °F - 44.6 °F 100% 30.10 in 7.0 mi Calm Calm - 0.01 in Rain Light Rain
9:15 PM 44.6 °F - 44.6 °F 100% 30.11 in 8.0 mi Calm Calm - N/A Rain Light Rain
9:35 PM 44.6 °F - 44.6 °F 100% 30.10 in 9.0 mi Calm Calm - N/A Rain Light Rain
9:55 PM 44.6 °F - 44.6 °F 100% 30.10 in 6.0 mi Calm Calm - 0.01 in Rain Light Rain
10:15 PM 44.6 °F - 44.6 °F 100% 30.10 in 7.0 mi Calm Calm - N/A Rain Light Rain
10:35 PM 44.6 °F - 44.6 °F 100% 30.09 in 5.0 mi Calm Calm - N/A Rain Light Rain
10:55 PM 44.6 °F - 44.6 °F 100% 30.08 in 5.0 mi Calm Calm - 0.01 in Rain Light Rain
11:15 PM 44.6 °F - 44.6 °F 100% 30.08 in 7.0 mi Calm Calm - N/A Rain Light Rain
11:35 PM 44.6 °F - 44.6 °F 100% 30.08 in 7.0 mi Calm Calm - N/A Rain Light Rain
11:55 PM 44.6 °F - 44.6 °F 100% 30.08 in 4.0 mi Calm Calm - 0.01 in Rain Light Rain